SCP
-0 -0 -0 -0 -0 -0 -0 -0 -0 -0 -0 -0 -0 -0 -0 -0 -0 -0 -0 0 -0 -0 -0 -0 0 0 0 0 0 0 0 0 0 0 0 0 0 0 0 0 0 0 0 0 0
-0 -0 -0 -0 -0 -0 -0 -0 -0 -0 -0 -0 -0 -0 -0 -0 -0 0 0 -0 -0 -0 -0 0 0 0 0 0 0 0 0 0 0 0 0 0 0 0 0 0 0 0 0 0 0
-0 -0 -0 -0 -0 -0 -0 -0 -0 -0 -0 -0 -0 -0 -0 -0 -0 0 0 0 -0 -0 -0 -0 -0 -0 0 0 0 0 0 0 0 0 0 0 0 0 0 0 0 0 0 0 0
-0 -0 -0 -0 -0 -0 -0 -0 -0 -0 -0 -0 -0 -0 -0 -0 0 0 -0 -0 -0 -0 -0 -0 -0 -0 0 0 0 0 0 0 0 0 0 0 0 0 0 0 0 0 0 0 0
-0 -0 -0 -0 -0 -0 -0 -0 -0 0 -0 -0 -0 -0 -0 0 0 0 -0 -0 -0 -0 0 0 0 0 0 0 0 0 0 0 0 0 0 0 0 0 0 0 0 0 0 0 0
-0 -0 -0 -0 -0 -0 -0 -0 -0 -0 -0 -0 -0 -0 -0 0 0 -0 -0 -0 -0 -0 0 0 0 0 0 0 0 0 0 0 0 0 0 0 0 0 0 0 0 0 0 0 0
-0 -0 -0 -0 -0 -0 -0 -0 0 -0 -0 -0 -0 -0 -0 0 -0 -0 -0 -0 0 -0 0 0 0 0 0 0 0 0 0 0 0 0 0 0 0 0 0 0 0 0 0 0 0
-0 -0 -0 -0 -0 -0 -0 -0 -0 -0 -0 -0 -0 -0 0 -0 -0 -0 -0 0 0 -0 -0 -0 -0 0 -0 0 0 0 0 0 0 0 0 0 0 0 0 0 0 0 0 0 0
-0 -0 -0 -0 -0 -0 -0 0 0 0 -0 -0 -0 -0 0 -0 -0 -0 -0 0 0 -0 0 0 -0 -0 0 -0 0 0 0 0 0 0 0 0 0 0 0 0 0 0 0 0 0
-0 -0 -0 -0 -0 -0 -0 -0 0 0 -0 -0 -0 -0 0 0 -0 -0 -0 -0 -0 0 0 -0 -0 0 0 0 0 0 0 0 0 0 0 0 0 0 0 0 0 0 0 0 0
-0 -0 -0 -0 -0 0 -0 0 0 0 0 0 0 0 0 -0 -0 -0 -0 -0 -0 -0 0 -0 0 0 0 0 0 0 0 0 0 0 0 0 0 0 0 0 0 0 0 0 0
-0 -0 -0 -0 -0 -0 -0 0 0 0 0 0 0 0 -0 -0 -0 -0 -0 -0 -0 0 0 0 0 0 0 0 0 0 0 0 0 0 0 0 0 0 0 0 0 0 0 0 0
-0 -0 -0 -0 0 0 0 0 0 0 0 0 0 0 0 -0 0 0 -0 0 0 0 0 0 0 0 0 0 0 0 0 0 0 0 0 0 0 0 0 0 0 0 0 0 0
-0 -0 -0 -0 -0 0 0 0 0 -0 0 0 0 0 0 0 0 0 0 -0 0 0 0 0 0 0 0 0 0 0 0 0 0 0 0 0 0 0 0 0 0 0 0 0 0
-0 -0 -0 -0 -0 0 0 0 0 -0 0 0 0 0 0 0 0 0 0 0 0 0 0 0 0 0 0 0 0 0 0 0 0 0 0 0 0 0 0 0 0 0 0 0 0
-0 -0 -0 0 0 0 0 0 -0 0 0 0 0 0 0 0 0 0 0 0 0 0 0 0 0 0 0 0 0 0 0 0 0 0 0 0 0 0 0 0 0 0 0 0 0
-0 -0 0 0 0 0 0 0 0 0 0 0 0 0 0 0 0 0 0 0 0 0 0 0 0 0 0 0 0 0 0 0 0 0 0 0 0 0 0 0 0 0 0 0 0
-0 -0 0 0 0 0 0 0 0 0 0 0 0 0 0 0 0 0 0 0 0 0 0 0 0 0 0 0 0 0 0 0 0 0 0 0 0 0 0 0 0 0 0 0 0
-0 0 0 0 0 0 0 0 0 0 0 0 0 0 0 0 0 0 0 0 0 0 0 0 0 0 0 0 0 0 0 0 0 0 0 0 0 0 0 0 0 0 0 0 0
0 0 0 0 0 0 0 0 0 0 0 0 0 0 0 0 0 0 0 0 0 0 0 0 0 0 0 0 0 0 0 0 0 0 0 0 0 0 0 0 0 0 0 0 0
0 0 0 0 0 0 0 0 0 0 0 0 0 0 0 0 0 0 0 0 0 0 0 0 0 0 0 0 0 0 0 0 0 0 0 0 0 0 0 0 0 0 0 0 0
0 0 0 0 0 0 0 0 0 0 0 0 0 0 0 0 0 0 0 0 0 0 0 0 0 0 0 0 0 0 0 0 0 0 0 0 0 0 0 0 0 0 0 0 0
0 0 0 0 0 0 0 0 0 0 0 0 0 0 0 0 0 0 0 0 0 0 0 0 0 0 0 0 0 0 0 0 0 0 0 0 0 0 0 0 0 0 0 0 0
0 0 0 0 0 0 0 0 0 0 0 0 0 0 0 0 0 0 0 0 0 0 0 0 0 0 0 0 0 0 0 0 0 0 0 0 0 0 0 0 0 0 0 0 0
0 0 0 0 0 0 0 0 0 0 0 0 0 0 0 0 0 0 0 0 0 0 0 0 0 0 0 0 0 0 0 0 0 0 0 0 0 0 0 0 0 0 0 0 0
0 0 0 0 0 0 0 0 0 0 0 0 0 0 0 0 0 0 0 0 0 0 0 0 0 0 0 0 0 0 0 0 0 0 0 0 0 0 0 0 0 -0 0 0 0
0 0 0 0 0 0 0 0 0 0 0 0 0 0 0 0 0 0 0 0 0 0 0 0 0 0 0 0 0 0 0 0 0 0 0 0 0 0 0 0 0 0 0 0 0
Wind_Speed_500mb
33 29 24 21 19 16 12 8 6 6 6 8 12 16 17 18 23 18 17 16 16 17 15 5 4 8 9 7 6 5 11 13 12 15 14 8 3 4 4 5 6 7 9 6 9
35 32 28 23 19 16 14 11 7 5 4 5 8 10 17 20 17 15 13 19 20 20 9 8 8 9 8 8 6 12 12 6 6 8 7 5 5 5 6 2 6 1 3 10 8
36 34 30 26 22 17 15 12 8 6 4 5 7 4 13 19 9 10 10 13 15 17 14 8 4 5 7 5 3 3 1 12 14 6 4 3 10 4 14 8 9 16 10 11 9
36 35 33 29 26 20 16 13 8 6 4 3 6 3 6 16 3 2 3 8 10 15 11 10 3 8 6 7 4 10 6 9 11 9 9 11 8 3 8 14 14 11 9 12 13
37 34 33 31 25 24 19 13 6 4 2 1 3 9 13 11 16 1 4 4 7 11 12 10 11 3 5 4 7 8 10 9 8 11 15 9 11 6 14 14 15 17 17 19 18
41 35 32 31 24 21 18 12 5 3 4 2 4 13 6 17 6 6 10 6 3 7 9 9 9 6 6 2 12 2 7 8 6 7 9 11 15 5 13 8 13 16 19 21 23
47 39 34 30 27 17 14 7 6 6 2 3 5 13 5 12 5 4 6 3 5 4 4 4 3 5 3 8 0 8 17 15 12 10 13 13 18 11 8 7 10 15 17 20 22
56 47 38 30 26 13 10 6 6 9 6 7 6 16 10 9 3 8 5 4 10 2 0 1 1 3 4 0 10 10 15 22 14 13 7 16 16 14 7 4 9 11 14 16 20
64 54 41 31 23 8 5 9 4 8 7 6 9 10 16 6 6 5 8 7 8 6 7 6 2 2 7 12 14 10 7 6 17 1 5 8 7 15 6 5 5 7 9 15 18
69 62 44 30 19 3 0 5 4 6 5 17 15 8 11 11 3 2 5 8 4 8 6 5 7 9 7 11 6 5 5 10 7 8 9 13 11 11 11 8 6 5 7 14 21
66 62 45 29 11 4 4 5 3 2 4 4 12 2 15 4 2 3 4 2 2 4 8 2 6 14 14 10 13 11 10 9 3 6 14 13 16 11 14 13 9 5 8 14 21
63 58 46 26 5 10 8 3 6 1 5 2 7 5 10 5 7 4 1 2 2 6 5 13 13 19 11 6 8 11 12 8 10 1 15 21 22 14 17 12 5 3 11 17 23
60 54 43 16 11 11 10 8 8 2 8 9 7 7 5 9 4 4 1 0 6 5 7 8 15 13 5 9 10 5 13 11 18 19 30 16 32 14 17 16 9 4 11 18 27
54 49 36 9 6 12 4 4 7 4 12 18 15 9 7 8 6 5 2 4 4 10 3 5 7 7 6 8 12 13 3 14 20 21 18 10 17 17 22 21 15 5 12 21 30
51 46 24 18 5 0 4 4 4 3 9 20 13 6 6 9 17 5 4 3 5 8 11 12 3 7 3 10 10 10 15 18 20 24 21 22 11 16 7 16 16 4 16 28 36
48 40 16 7 2 7 5 3 2 11 9 15 10 12 15 9 7 8 5 6 2 4 5 9 4 5 13 12 8 16 17 24 16 14 12 10 10 13 8 10 4 8 25 36 42
48 37 17 6 4 7 9 4 10 11 10 14 11 13 10 10 10 7 3 2 1 9 6 10 7 5 12 14 10 15 12 7 10 10 5 8 13 12 10 6 6 16 31 40 43
47 38 21 19 8 3 9 11 15 4 14 7 8 12 13 12 8 10 8 9 7 3 5 5 12 2 10 8 11 7 11 5 7 9 17 8 10 12 9 3 7 23 36 43 46
43 35 15 23 12 7 16 15 6 7 12 16 15 16 13 12 8 13 8 1 4 5 4 6 7 4 5 6 10 9 1 7 2 6 10 3 8 13 10 5 15 33 40 43 47
45 33 9 18 15 10 15 16 7 7 10 13 17 9 15 16 14 12 15 7 8 2 7 7 8 7 5 9 7 12 8 7 6 6 11 3 7 9 8 11 27 35 42 49 51
35 14 11 9 16 16 17 11 10 16 13 10 11 11 11 11 15 13 11 11 9 10 2 2 6 13 9 15 6 13 9 0 7 4 5 9 5 11 12 16 30 34 47 50 54
12 8 7 6 17 11 17 11 9 23 14 6 8 7 15 14 13 13 14 4 10 2 5 7 7 12 4 4 5 10 5 5 5 7 9 9 13 7 10 24 29 38 48 51 53
23 15 7 9 12 17 7 12 14 20 19 13 11 9 10 15 11 12 11 12 15 7 2 7 7 11 15 13 13 16 15 12 11 10 22 8 10 4 21 28 34 41 49 52 51
13 6 5 4 3 12 10 18 18 19 19 14 8 13 16 14 12 13 15 18 17 12 1 8 13 16 9 16 10 9 16 17 18 15 21 20 35 26 25 30 39 43 50 55 53
6 4 5 3 7 6 8 2 21 16 18 22 14 21 20 13 16 15 15 15 18 10 10 12 14 19 23 20 20 22 25 24 26 28 27 27 30 30 25 29 39 45 50 54 55
10 10 9 17 14 15 9 16 17 13 17 26 20 23 18 15 15 9 11 12 16 17 16 13 11 11 23 23 26 32 30 32 28 28 25 24 29 18 33 38 42 50 50 53 60
11 12 7 7 7 10 11 10 9 6 9 7 18 16 20 14 6 6 10 17 19 16 20 15 12 11 22 4 16 24 32 32 19 21 19 21 27 23 27 35 42 45 44 59 57
Wind_Direction_500mb
29 27 23 21 23 24 23 16 16 18 29 48 38 38 58 85 109 69 71 79 63 60 57 49 156 150 140 136 156 202 226 200 166 195 130 148 244 40 4 347 46 59 69 63 19
22 19 16 13 5 5 7 6 352 342 354 18 38 79 86 106 92 78 69 62 50 45 33 31 120 150 141 143 156 253 252 133 80 89 143 123 280 333 271 231 130 48 90 26 349
15 11 7 5 2 357 353 351 344 323 312 349 2 57 164 114 125 69 74 41 28 38 38 39 118 180 140 175 129 149 28 139 149 153 212 264 244 323 313 217 14 323 308 331 7
8 5 2 354 352 352 345 339 338 321 302 312 356 46 93 181 29 156 10 23 26 36 30 29 181 195 182 163 150 193 151 170 136 175 230 246 306 129 14 16 353 22 70 74 64
3 359 356 353 342 343 343 341 334 360 335 47 51 139 119 135 92 340 303 308 8 21 35 36 53 165 193 183 180 235 158 185 176 240 252 248 244 100 73 45 59 73 75 72 68
1 355 351 349 340 334 340 346 359 5 12 97 100 159 145 110 134 56 50 40 357 17 21 36 49 69 89 208 263 106 234 212 224 156 125 211 144 213 62 59 68 68 64 60 52
3 356 350 345 344 327 336 335 334 323 300 122 103 146 182 103 151 15 360 345 321 347 18 37 62 332 178 156 72 205 232 182 194 173 102 152 151 102 85 74 68 62 56 51 45
3 357 348 342 344 325 339 351 318 331 169 154 98 137 108 141 59 15 351 342 350 185 146 224 84 81 317 72 189 201 229 178 130 183 111 228 135 112 109 108 74 60 59 52 44
3 356 348 341 340 318 332 347 16 125 72 194 162 158 129 134 91 36 48 56 59 105 113 111 126 2 205 228 183 193 140 256 152 35 323 298 334 118 141 134 100 77 54 43 33
2 356 351 344 338 316 292 345 45 121 80 91 140 183 162 134 123 77 68 58 77 128 156 199 198 226 191 277 342 25 246 172 272 119 252 279 299 158 181 192 168 109 60 39 22
359 358 355 349 344 124 89 102 143 144 179 289 144 309 137 178 140 131 144 124 185 143 116 74 285 11 348 341 315 290 280 281 337 80 296 312 293 201 196 208 171 125 48 27 17
359 359 356 357 75 123 95 88 57 97 158 125 172 178 171 171 161 110 103 276 15 35 208 215 51 351 301 302 290 248 266 260 282 78 301 305 295 288 180 192 173 31 18 6 358
358 360 2 17 120 133 98 90 52 84 229 148 159 157 157 178 116 72 294 36 0 29 13 23 24 349 197 183 243 223 295 326 310 312 267 273 275 167 181 181 183 29 0 355 349
356 359 6 28 86 131 81 51 30 36 209 157 183 153 170 180 135 88 18 297 174 15 348 44 54 359 77 92 307 279 65 289 287 295 305 12 292 193 168 204 211 289 343 346 343
352 356 356 19 149 45 264 346 324 294 233 142 162 164 205 219 133 93 75 244 359 65 273 79 78 7 29 6 327 3 316 289 294 289 302 252 251 127 153 202 200 277 335 340 336
345 347 329 334 51 241 255 344 139 225 221 157 172 187 174 173 136 110 163 116 185 204 45 99 116 4 2 321 293 306 276 262 269 262 250 91 290 119 109 47 125 334 338 336 332
338 335 313 273 250 280 230 207 227 248 138 168 177 199 175 167 141 177 151 133 247 220 171 180 126 147 343 299 180 293 295 315 233 204 320 128 273 52 77 114 16 338 327 337 334
332 327 308 224 242 286 176 216 247 61 182 110 166 178 209 182 167 176 212 164 82 310 166 299 173 351 9 355 339 7 337 99 264 327 324 239 235 104 59 102 295 327 338 335 336
330 330 299 216 225 223 221 218 298 195 159 167 173 212 182 184 261 210 233 149 85 17 314 265 158 127 16 313 282 100 35 13 240 244 266 174 156 159 118 186 333 336 335 336 337
335 327 239 215 209 217 233 246 220 177 151 190 221 225 208 180 220 215 183 146 145 60 354 85 257 186 84 219 101 322 106 214 119 293 295 286 311 278 349 346 348 337 334 335 335
336 306 224 232 194 221 234 230 196 179 174 208 210 191 217 190 236 214 176 137 204 146 343 349 284 144 224 209 209 176 183 246 290 298 288 302 306 63 341 347 337 328 338 335 336
350 269 241 206 220 225 232 206 205 165 180 158 207 206 202 193 203 222 202 204 172 159 282 78 302 272 315 119 269 267 237 255 251 236 211 272 282 96 342 324 333 333 336 336 334
320 280 269 186 236 217 194 210 214 179 186 181 183 197 189 192 205 222 200 139 170 215 215 150 202 273 178 182 189 239 217 245 273 272 264 247 262 355 326 321 338 337 335 331 333
311 286 195 196 240 295 214 217 197 200 192 186 161 173 186 197 205 186 199 177 209 232 18 233 244 240 254 333 334 223 239 237 248 273 263 265 270 299 323 341 338 332 331 333 333
286 25 341 285 142 277 238 330 214 181 208 192 191 210 195 203 201 215 207 186 207 191 215 221 246 237 256 269 261 261 264 254 255 251 269 294 308 312 339 340 321 331 333 333 334
309 333 327 286 295 271 185 203 227 177 203 199 229 203 204 221 224 203 239 220 256 169 209 205 251 264 263 251 246 262 251 253 266 257 265 273 275 350 335 327 332 332 330 328 332
308 307 300 274 250 253 231 237 212 207 200 264 233 198 212 227 232 277 274 274 258 242 209 220 256 248 272 238 259 259 254 247 240 239 270 289 330 317 330 335 333 325 330 336 330
Wind_Speed_850mb
33 29 24 21 19 16 12 8 6 6 6 8 12 16 17 18 23 18 17 16 16 17 15 5 4 8 9 7 6 5 11 13 12 15 14 8 3 4 4 5 6 7 9 6 9
35 32 28 23 19 16 14 11 7 5 4 5 8 10 17 20 17 15 13 19 20 20 9 8 8 9 8 8 6 12 12 6 6 8 7 5 5 5 6 2 6 1 3 10 8
36 34 30 26 22 17 15 12 8 6 4 5 7 4 13 19 9 10 10 13 15 17 14 8 4 5 7 5 3 3 1 12 14 6 4 3 10 4 14 8 9 16 10 11 9
36 35 33 29 26 20 16 13 8 6 4 3 6 3 6 16 3 2 3 8 10 15 11 10 3 8 6 7 4 10 6 9 11 9 9 11 8 3 8 14 14 11 9 12 13
37 34 33 31 25 24 19 13 6 4 2 1 3 9 13 11 16 1 4 4 7 11 12 10 11 3 5 4 7 8 10 9 8 11 15 9 11 6 14 14 15 17 17 19 18
41 35 32 31 24 21 18 12 5 3 4 2 4 13 6 17 6 6 10 6 3 7 9 9 9 6 6 2 12 2 7 8 6 7 9 11 15 5 13 8 13 16 19 21 23
47 39 34 30 27 17 14 7 6 6 2 3 5 13 5 12 5 4 6 3 5 4 4 4 3 5 3 8 0 8 17 15 12 10 13 13 18 11 8 7 10 15 17 20 22
56 47 38 30 26 13 10 6 6 9 6 7 6 16 10 9 3 8 5 4 10 2 0 1 1 3 4 0 10 10 15 22 14 13 7 16 16 14 7 4 9 11 14 16 20
64 54 41 31 23 8 5 9 4 8 7 6 9 10 16 6 6 5 8 7 8 6 7 6 2 2 7 12 14 10 7 6 17 1 5 8 7 15 6 5 5 7 9 15 18
69 62 44 30 19 3 0 5 4 6 5 17 15 8 11 11 3 2 5 8 4 8 6 5 7 9 7 11 6 5 5 10 7 8 9 13 11 11 11 8 6 5 7 14 21
66 62 45 29 11 4 4 5 3 2 4 4 12 2 15 4 2 3 4 2 2 4 8 2 6 14 14 10 13 11 10 9 3 6 14 13 16 11 14 13 9 5 8 14 21
63 58 46 26 5 10 8 3 6 1 5 2 7 5 10 5 7 4 1 2 2 6 5 13 13 19 11 6 8 11 12 8 10 1 15 21 22 14 17 12 5 3 11 17 23
60 54 43 16 11 11 10 8 8 2 8 9 7 7 5 9 4 4 1 0 6 5 7 8 15 13 5 9 10 5 13 11 18 19 30 16 32 14 17 16 9 4 11 18 27
54 49 36 9 6 12 4 4 7 4 12 18 15 9 7 8 6 5 2 4 4 10 3 5 7 7 6 8 12 13 3 14 20 21 18 10 17 17 22 21 15 5 12 21 30
51 46 24 18 5 0 4 4 4 3 9 20 13 6 6 9 17 5 4 3 5 8 11 12 3 7 3 10 10 10 15 18 20 24 21 22 11 16 7 16 16 4 16 28 36
48 40 16 7 2 7 5 3 2 11 9 15 10 12 15 9 7 8 5 6 2 4 5 9 4 5 13 12 8 16 17 24 16 14 12 10 10 13 8 10 4 8 25 36 42
48 37 17 6 4 7 9 4 10 11 10 14 11 13 10 10 10 7 3 2 1 9 6 10 7 5 12 14 10 15 12 7 10 10 5 8 13 12 10 6 6 16 31 40 43
47 38 21 19 8 3 9 11 15 4 14 7 8 12 13 12 8 10 8 9 7 3 5 5 12 2 10 8 11 7 11 5 7 9 17 8 10 12 9 3 7 23 36 43 46
43 35 15 23 12 7 16 15 6 7 12 16 15 16 13 12 8 13 8 1 4 5 4 6 7 4 5 6 10 9 1 7 2 6 10 3 8 13 10 5 15 33 40 43 47
45 33 9 18 15 10 15 16 7 7 10 13 17 9 15 16 14 12 15 7 8 2 7 7 8 7 5 9 7 12 8 7 6 6 11 3 7 9 8 11 27 35 42 49 51
35 14 11 9 16 16 17 11 10 16 13 10 11 11 11 11 15 13 11 11 9 10 2 2 6 13 9 15 6 13 9 0 7 4 5 9 5 11 12 16 30 34 47 50 54
12 8 7 6 17 11 17 11 9 23 14 6 8 7 15 14 13 13 14 4 10 2 5 7 7 12 4 4 5 10 5 5 5 7 9 9 13 7 10 24 29 38 48 51 53
23 15 7 9 12 17 7 12 14 20 19 13 11 9 10 15 11 12 11 12 15 7 2 7 7 11 15 13 13 16 15 12 11 10 22 8 10 4 21 28 34 41 49 52 51
13 6 5 4 3 12 10 18 18 19 19 14 8 13 16 14 12 13 15 18 17 12 1 8 13 16 9 16 10 9 16 17 18 15 21 20 35 26 25 30 39 43 50 55 53
6 4 5 3 7 6 8 2 21 16 18 22 14 21 20 13 16 15 15 15 18 10 10 12 14 19 23 20 20 22 25 24 26 28 27 27 30 30 25 29 39 45 50 54 55
10 10 9 17 14 15 9 16 17 13 17 26 20 23 18 15 15 9 11 12 16 17 16 13 11 11 23 23 26 32 30 32 28 28 25 24 29 18 33 38 42 50 50 53 60
11 12 7 7 7 10 11 10 9 6 9 7 18 16 20 14 6 6 10 17 19 16 20 15 12 11 22 4 16 24 32 32 19 21 19 21 27 23 27 35 42 45 44 59 57
Wind_Direction_850mb
29 27 23 21 23 24 23 16 16 18 29 48 38 38 58 85 109 69 71 79 63 60 57 49 156 150 140 136 156 202 226 200 166 195 130 148 244 40 4 347 46 59 69 63 19
22 19 16 13 5 5 7 6 352 342 354 18 38 79 86 106 92 78 69 62 50 45 33 31 120 150 141 143 156 253 252 133 80 89 143 123 280 333 271 231 130 48 90 26 349
15 11 7 5 2 357 353 351 344 323 312 349 2 57 164 114 125 69 74 41 28 38 38 39 118 180 140 175 129 149 28 139 149 153 212 264 244 323 313 217 14 323 308 331 7
8 5 2 354 352 352 345 339 338 321 302 312 356 46 93 181 29 156 10 23 26 36 30 29 181 195 182 163 150 193 151 170 136 175 230 246 306 129 14 16 353 22 70 74 64
3 359 356 353 342 343 343 341 334 360 335 47 51 139 119 135 92 340 303 308 8 21 35 36 53 165 193 183 180 235 158 185 176 240 252 248 244 100 73 45 59 73 75 72 68
1 355 351 349 340 334 340 346 359 5 12 97 100 159 145 110 134 56 50 40 357 17 21 36 49 69 89 208 263 106 234 212 224 156 125 211 144 213 62 59 68 68 64 60 52
3 356 350 345 344 327 336 335 334 323 300 122 103 146 182 103 151 15 360 345 321 347 18 37 62 332 178 156 72 205 232 182 194 173 102 152 151 102 85 74 68 62 56 51 45
3 357 348 342 344 325 339 351 318 331 169 154 98 137 108 141 59 15 351 342 350 185 146 224 84 81 317 72 189 201 229 178 130 183 111 228 135 112 109 108 74 60 59 52 44
3 356 348 341 340 318 332 347 16 125 72 194 162 158 129 134 91 36 48 56 59 105 113 111 126 2 205 228 183 193 140 256 152 35 323 298 334 118 141 134 100 77 54 43 33
2 356 351 344 338 316 292 345 45 121 80 91 140 183 162 134 123 77 68 58 77 128 156 199 198 226 191 277 342 25 246 172 272 119 252 279 299 158 181 192 168 109 60 39 22
359 358 355 349 344 124 89 102 143 144 179 289 144 309 137 178 140 131 144 124 185 143 116 74 285 11 348 341 315 290 280 281 337 80 296 312 293 201 196 208 171 125 48 27 17
359 359 356 357 75 123 95 88 57 97 158 125 172 178 171 171 161 110 103 276 15 35 208 215 51 351 301 302 290 248 266 260 282 78 301 305 295 288 180 192 173 31 18 6 358
358 360 2 17 120 133 98 90 52 84 229 148 159 157 157 178 116 72 294 36 0 29 13 23 24 349 197 183 243 223 295 326 310 312 267 273 275 167 181 181 183 29 0 355 349
356 359 6 28 86 131 81 51 30 36 209 157 183 153 170 180 135 88 18 297 174 15 348 44 54 359 77 92 307 279 65 289 287 295 305 12 292 193 168 204 211 289 343 346 343
352 356 356 19 149 45 264 346 324 294 233 142 162 164 205 219 133 93 75 244 359 65 273 79 78 7 29 6 327 3 316 289 294 289 302 252 251 127 153 202 200 277 335 340 336
345 347 329 334 51 241 255 344 139 225 221 157 172 187 174 173 136 110 163 116 185 204 45 99 116 4 2 321 293 306 276 262 269 262 250 91 290 119 109 47 125 334 338 336 332
338 335 313 273 250 280 230 207 227 248 138 168 177 199 175 167 141 177 151 133 247 220 171 180 126 147 343 299 180 293 295 315 233 204 320 128 273 52 77 114 16 338 327 337 334
332 327 308 224 242 286 176 216 247 61 182 110 166 178 209 182 167 176 212 164 82 310 166 299 173 351 9 355 339 7 337 99 264 327 324 239 235 104 59 102 295 327 338 335 336
330 330 299 216 225 223 221 218 298 195 159 167 173 212 182 184 261 210 233 149 85 17 314 265 158 127 16 313 282 100 35 13 240 244 266 174 156 159 118 186 333 336 335 336 337
335 327 239 215 209 217 233 246 220 177 151 190 221 225 208 180 220 215 183 146 145 60 354 85 257 186 84 219 101 322 106 214 119 293 295 286 311 278 349 346 348 337 334 335 335
336 306 224 232 194 221 234 230 196 179 174 208 210 191 217 190 236 214 176 137 204 146 343 349 284 144 224 209 209 176 183 246 290 298 288 302 306 63 341 347 337 328 338 335 336
350 269 241 206 220 225 232 206 205 165 180 158 207 206 202 193 203 222 202 204 172 159 282 78 302 272 315 119 269 267 237 255 251 236 211 272 282 96 342 324 333 333 336 336 334
320 280 269 186 236 217 194 210 214 179 186 181 183 197 189 192 205 222 200 139 170 215 215 150 202 273 178 182 189 239 217 245 273 272 264 247 262 355 326 321 338 337 335 331 333
311 286 195 196 240 295 214 217 197 200 192 186 161 173 186 197 205 186 199 177 209 232 18 233 244 240 254 333 334 223 239 237 248 273 263 265 270 299 323 341 338 332 331 333 333
286 25 341 285 142 277 238 330 214 181 208 192 191 210 195 203 201 215 207 186 207 191 215 221 246 237 256 269 261 261 264 254 255 251 269 294 308 312 339 340 321 331 333 333 334
309 333 327 286 295 271 185 203 227 177 203 199 229 203 204 221 224 203 239 220 256 169 209 205 251 264 263 251 246 262 251 253 266 257 265 273 275 350 335 327 332 332 330 328 332
308 307 300 274 250 253 231 237 212 207 200 264 233 198 212 227 232 277 274 274 258 242 209 220 256 248 272 238 259 259 254 247 240 239 270 289 330 317 330 335 333 325 330 336 330